Temp
61 61 62 62 62 62 62 62 62 62 63 63 63 63 63 63 65 68 58 63 64 66 65 69 74 74 74 67 68 67 54 51 52 53 53 60 56 60 60 57 59 57 55 58 61
61 61 61 61 61 62 62 62 62 62 62 63 63 63 63 63 66 61 65 67 66 66 69 71 69 71 64 64 63 58 52 51 56 56 53 57 55 55 54 56 55 56 60 60 60
60 60 60 61 61 61 62 61 61 62 62 62 63 63 63 64 62 61 67 67 67 67 69 72 71 69 61 61 59 57 51 56 57 56 58 57 55 56 52 51 53 50 53 55 56
60 60 60 60 61 61 61 61 61 61 62 62 62 63 62 65 53 65 67 67 67 68 68 69 67 61 57 54 60 52 57 58 57 56 57 54 57 54 52 50 55 52 54 54 54
59 59 60 60 60 61 61 61 61 61 62 62 62 63 63 60 57 69 66 68 71 69 65 66 63 61 54 57 59 53 54 58 56 55 54 57 53 50 51 55 56 57 56 54 53
59 59 59 59 60 61 61 61 61 61 62 62 63 62 62 55 66 70 68 66 67 68 63 65 63 64 57 55 54 56 56 55 55 56 56 52 52 50 53 55 54 56 54 52 53
59 59 59 59 60 60 60 60 61 61 62 63 63 66 60 54 68 68 69 65 66 66 62 64 64 60 59 52 58 56 50 52 54 54 52 52 47 48 53 54 53 55 55 55 54
59 58 58 59 59 59 60 60 60 61 62 63 64 64 53 65 66 66 67 67 68 67 64 64 64 60 57 57 55 51 48 42 51 52 51 49 41 53 55 50 51 53 52 54 55
58 58 58 58 58 59 59 60 61 62 63 64 63 61 52 65 61 64 64 61 64 65 63 68 63 55 54 48 44 47 38 43 46 51 49 47 42 52 56 52 49 51 52 52 52
58 58 58 58 58 59 59 60 62 62 65 69 68 56 59 55 60 62 65 63 60 60 58 58 56 50 49 46 35 37 39 45 43 46 47 44 45 52 54 52 49 49 51 50 52
58 58 58 58 58 59 61 61 59 57 58 53 54 55 57 61 61 60 61 59 61 57 49 52 46 39 43 45 48 45 41 41 46 49 43 44 46 50 51 47 48 49 49 49 50
58 58 58 58 58 59 60 59 56 57 50 57 57 57 59 58 55 57 61 55 55 46 50 47 39 46 49 49 46 45 40 39 44 48 43 43 43 49 51 48 45 46 48 49 51
58 58 58 58 58 57 60 58 61 60 54 54 57 57 56 58 52 52 57 54 50 47 47 41 43 49 47 45 44 41 37 35 36 43 45 41 38 45 49 49 51 50 48 50 47
58 58 57 57 56 60 58 60 61 59 42 49 52 54 57 57 49 57 56 53 50 45 44 42 46 45 42 44 43 38 43 41 40 34 30 40 26 42 45 47 49 49 48 43 44
58 57 57 58 57 58 58 61 61 57 35 50 51 60 57 53 51 50 55 54 46 45 43 38 40 39 40 41 43 39 42 40 38 33 31 33 27 40 45 44 46 47 47 46 44
57 57 57 58 58 58 60 59 56 37 34 39 51 50 50 52 51 53 52 53 51 46 44 39 45 42 40 44 43 44 40 39 36 33 21 30 29 36 40 43 45 48 48 49 45
57 56 56 60 54 59 58 55 36 34 43 39 42 49 50 47 48 49 48 44 38 34 31 37 38 41 43 37 42 39 32 22 23 21 22 33 26 37 44 47 45 44 44 44 45
56 55 53 57 58 57 54 45 33 35 35 48 49 49 45 48 46 46 43 39 41 36 33 32 31 36 42 37 34 35 32 24 19 21 24 31 28 40 47 49 47 47 45 46 46
55 54 53 52 56 54 49 33 37 37 44 45 46 38 39 46 45 46 43 39 39 38 33 30 32 38 40 41 39 34 30 34 24 18 20 30 39 45 44 44 46 46 46 45 45
53 51 51 53 54 52 38 38 35 50 51 48 40 43 36 42 43 43 42 44 40 41 39 33 30 32 37 40 39 34 39 28 26 18 18 26 30 32 37 43 47 45 44 44 45
52 46 48 54 52 46 33 35 40 51 50 45 37 41 47 44 46 43 43 42 45 40 41 33 34 31 32 30 33 32 29 32 32 28 20 18 28 41 41 44 44 43 45 43 43
49 35 49 51 37 33 32 35 49 46 48 47 47 46 48 47 44 43 43 44 48 43 37 38 34 30 31 32 38 36 35 36 26 23 24 24 26 42 42 43 44 44 46 43 41
43 41 49 47 33 31 34 45 47 45 45 46 46 47 49 47 40 43 42 43 45 43 38 38 32 28 31 31 32 29 35 37 33 30 24 21 29 42 42 38 42 42 42 42 41
41 33 40 42 42 37 33 36 39 46 47 48 47 47 45 37 44 40 39 40 41 43 43 43 29 30 30 33 32 26 29 34 31 23 27 28 30 39 36 34 36 36 34 33 34
41 34 35 30 32 38 44 41 42 36 43 47 43 46 44 34 34 37 39 37 40 42 41 40 27 26 28 33 33 32 29 30 27 31 31 31 28 39 33 34 37 38 38 34 29
36 35 36 34 40 40 41 38 44 43 41 41 41 46 46 41 44 36 38 39 39 38 38 40 30 26 24 27 29 26 31 30 32 29 30 32 33 46 48 40 33 33 33 34 34
43 43 43 39 38 38 39 40 45 47 46 47 47 44 42 45 42 42 44 45 43 37 35 34 32 29 30 24 22 26 28 32 30 32 33 29 40 41 39 42 39 39 38 36 40
MSLP
1019.45 1019.35 1018.98 1019.01 1018.69 1018.63 1018.51 1018.16 1018.23 1017.92 1017.88 1017.58 1017.48 1017.43 1017.18 1016.86 1016.54 1016.43 1017.04 1017.54 1016.98 1016.46 1016.18 1015.19 1014.19 1013.58 1013.30 1013.52 1013.41 1013.10 1013.12 1013.70 1014.74 1015.21 1016.04 1016.47 1016.91 1017.20 1017.70 1017.71 1018.07 1018.84 1019.15 1019.67 1019.83
1019.63 1019.59 1019.21 1018.83 1018.78 1018.57 1018.55 1018.41 1018.29 1018.05 1018.06 1017.90 1017.39 1017.41 1017.26 1017.01 1016.77 1016.77 1017.71 1017.19 1016.71 1016.34 1015.70 1014.86 1014.25 1013.75 1013.63 1013.87 1014.00 1013.69 1014.05 1015.40 1016.39 1016.63 1016.79 1016.99 1017.40 1017.64 1017.67 1017.60 1017.99 1018.62 1018.96 1019.48 1019.73
1019.83 1019.66 1019.44 1019.26 1018.72 1018.82 1018.60 1018.46 1018.18 1017.85 1017.85 1017.77 1017.72 1017.26 1017.36 1017.08 1016.82 1017.19 1017.25 1016.87 1016.42 1016.24 1015.89 1015.24 1014.65 1014.12 1014.15 1014.65 1014.98 1014.88 1015.61 1016.61 1017.21 1017.67 1017.57 1017.54 1017.58 1017.91 1018.02 1018.00 1018.56 1019.21 1019.54 1019.87 1019.91
1019.99 1019.75 1019.32 1019.23 1018.98 1018.72 1018.55 1018.60 1018.37 1017.99 1018.20 1018.03 1017.61 1017.46 1017.20 1017.04 1017.75 1017.39 1017.21 1016.82 1016.31 1015.95 1015.67 1015.17 1014.71 1014.54 1014.69 1015.16 1015.67 1016.16 1016.91 1017.23 1017.90 1018.27 1018.08 1017.98 1018.12 1018.09 1018.30 1018.55 1019.05 1019.40 1019.76 1019.95 1019.97
1020.09 1019.83 1019.45 1019.36 1018.92 1018.56 1018.59 1018.36 1018.19 1017.99 1017.97 1018.07 1017.72 1017.43 1017.05 1017.28 1017.88 1017.45 1017.17 1016.70 1015.97 1015.94 1015.60 1015.22 1014.84 1014.87 1015.51 1015.71 1016.10 1016.80 1017.48 1017.82 1018.45 1018.62 1018.49 1018.49 1018.32 1018.34 1018.36 1018.43 1019.01 1019.41 1019.69 1019.69 1019.77
1020.07 1019.68 1019.58 1019.13 1019.02 1018.81 1018.59 1018.27 1018.02 1017.67 1017.53 1017.78 1017.67 1017.55 1017.21 1017.74 1018.23 1017.77 1017.32 1016.93 1016.37 1016.02 1015.79 1015.63 1015.63 1015.42 1016.09 1016.49 1016.52 1017.44 1017.63 1018.05 1018.50 1018.47 1018.50 1018.72 1018.35 1018.40 1017.90 1018.32 1018.87 1019.02 1019.18 1019.34 1019.43
1019.90 1019.80 1019.40 1019.29 1019.15 1018.51 1018.50 1018.47 1018.00 1017.87 1017.59 1017.45 1017.30 1017.29 1017.40 1018.58 1018.09 1017.87 1017.44 1017.21 1016.85 1016.52 1016.40 1016.41 1016.21 1016.16 1016.48 1017.12 1017.32 1017.65 1017.77 1018.04 1018.23 1018.44 1018.58 1018.75 1018.37 1017.91 1017.75 1018.23 1018.59 1018.58 1018.55 1018.76 1018.90
1019.73 1019.91 1019.46 1018.86 1018.68 1018.92 1018.56 1018.49 1017.70 1017.66 1017.67 1017.35 1017.23 1016.97 1018.21 1018.50 1018.20 1018.05 1017.58 1017.14 1017.13 1016.99 1016.92 1016.86 1016.67 1016.77 1017.27 1017.62 1017.67 1017.61 1017.82 1017.87 1018.35 1018.58 1018.74 1018.77 1017.76 1017.23 1017.53 1017.95 1018.11 1018.02 1017.98 1018.13 1018.31
1019.90 1019.84 1019.35 1018.80 1018.46 1018.68 1018.22 1018.53 1017.89 1017.49 1017.69 1017.24 1017.23 1016.79 1018.31 1018.32 1018.34 1018.32 1017.98 1017.78 1017.51 1017.30 1017.14 1017.01 1016.91 1017.47 1018.08 1017.89 1017.93 1017.65 1017.85 1018.17 1018.59 1018.85 1018.92 1018.75 1017.85 1017.03 1017.07 1017.51 1017.84 1017.67 1017.59 1017.59 1017.93
1019.53 1019.88 1019.58 1018.90 1018.29 1018.36 1017.84 1018.14 1017.78 1017.51 1017.62 1017.20 1016.91 1017.38 1018.42 1018.60 1018.63 1018.49 1018.15 1017.89 1017.71 1017.61 1017.40 1017.29 1017.38 1017.94 1018.38 1018.46 1018.64 1018.21 1018.20 1018.52 1018.76 1018.99 1019.03 1018.85 1017.76 1016.75 1016.45 1016.84 1017.28 1017.27 1017.17 1017.26 1017.41
1019.17 1019.68 1019.56 1019.03 1018.20 1018.31 1017.83 1017.87 1017.68 1018.33 1018.09 1018.19 1018.02 1018.11 1018.57 1018.75 1018.67 1018.50 1018.38 1018.02 1017.71 1017.79 1017.95 1018.07 1018.54 1019.61 1019.81 1019.70 1019.46 1019.21 1019.01 1019.20 1018.90 1019.16 1019.47 1018.48 1017.61 1016.74 1016.28 1016.58 1016.74 1016.86 1016.82 1016.97 1017.07
1019.09 1019.23 1019.47 1019.01 1018.25 1018.08 1018.04 1017.71 1018.60 1018.99 1018.94 1019.06 1018.40 1018.67 1018.79 1018.85 1018.60 1018.80 1018.39 1018.35 1017.99 1018.36 1018.56 1019.11 1020.02 1020.81 1020.78 1020.48 1020.38 1020.16 1019.73 1019.98 1019.83 1019.75 1020.00 1018.82 1017.70 1016.76 1016.16 1016.20 1016.46 1016.72 1016.97 1017.03 1017.21
1018.72 1019.08 1019.03 1019.00 1018.50 1018.02 1017.71 1018.44 1018.63 1018.64 1018.51 1019.12 1018.85 1018.65 1018.97 1018.90 1018.99 1019.28 1018.99 1018.71 1018.75 1019.04 1019.42 1020.12 1021.41 1021.41 1021.34 1021.13 1021.13 1021.06 1021.11 1021.17 1021.52 1020.63 1019.62 1019.46 1017.60 1016.26 1015.95 1016.09 1016.26 1016.47 1016.75 1016.85 1016.93
1018.89 1018.66 1018.83 1018.73 1018.74 1017.87 1017.92 1018.40 1018.35 1018.39 1018.85 1019.10 1019.09 1019.02 1018.93 1018.82 1019.30 1019.51 1019.54 1019.43 1019.44 1020.01 1020.48 1021.44 1022.06 1021.95 1021.91 1021.84 1022.07 1022.18 1022.50 1022.27 1021.99 1021.79 1021.11 1020.11 1018.62 1016.42 1015.88 1015.75 1015.87 1016.02 1016.37 1016.63 1016.81
1018.58 1018.66 1018.66 1018.59 1018.58 1018.19 1018.12 1018.26 1018.19 1018.53 1019.11 1018.75 1018.79 1019.06 1018.86 1018.94 1019.36 1019.65 1019.67 1019.22 1019.93 1020.59 1021.21 1022.39 1022.59 1022.61 1022.54 1022.86 1022.83 1023.00 1023.18 1023.18 1022.75 1022.56 1022.15 1020.63 1019.98 1016.22 1015.70 1015.47 1015.55 1015.68 1016.08 1016.38 1016.71
1018.28 1018.41 1018.60 1018.42 1018.28 1018.52 1018.31 1018.18 1018.34 1019.32 1019.15 1018.96 1018.53 1018.54 1018.74 1018.81 1019.19 1019.30 1019.43 1019.69 1020.46 1020.98 1021.77 1022.82 1023.32 1023.41 1023.54 1023.44 1023.41 1023.43 1023.46 1023.63 1023.28 1023.19 1023.04 1021.41 1020.73 1016.59 1015.40 1015.07 1015.18 1015.38 1015.72 1016.11 1016.55
1018.16 1018.23 1018.60 1018.23 1018.30 1018.52 1018.45 1018.25 1019.43 1019.53 1019.25 1018.89 1018.36 1018.23 1018.15 1018.73 1019.12 1018.92 1019.17 1020.07 1020.83 1021.64 1022.55 1023.16 1023.62 1024.01 1024.12 1023.91 1023.85 1023.77 1023.98 1024.16 1024.32 1024.02 1023.18 1021.82 1020.78 1016.48 1015.03 1014.76 1014.98 1015.24 1015.58 1016.02 1016.47
1017.97 1018.44 1018.43 1018.30 1018.39 1018.54 1018.58 1018.98 1019.42 1018.59 1018.63 1018.27 1017.95 1018.07 1018.16 1018.48 1018.87 1018.98 1019.30 1020.08 1021.10 1021.71 1022.82 1023.47 1024.07 1024.42 1024.65 1024.60 1024.48 1024.33 1024.63 1025.01 1025.47 1025.38 1024.05 1022.06 1019.75 1016.12 1015.07 1014.91 1015.17 1015.27 1015.60 1016.04 1016.52
1017.91 1018.34 1018.39 1018.40 1018.48 1018.65 1018.86 1019.55 1017.85 1017.46 1017.04 1017.47 1018.12 1018.28 1018.30 1018.33 1018.44 1018.81 1019.03 1020.04 1021.08 1021.95 1022.91 1023.62 1024.49 1024.91 1025.08 1025.08 1025.18 1024.90 1025.00 1025.17 1025.46 1026.07 1024.85 1021.40 1018.28 1015.93 1015.29 1015.15 1015.41 1015.53 1015.68 1016.10 1016.60
1017.37 1018.04 1018.41 1018.45 1018.39 1018.73 1019.23 1018.80 1017.79 1016.69 1016.30 1016.64 1016.83 1017.09 1017.75 1017.80 1018.08 1018.37 1018.98 1019.93 1021.34 1022.11 1022.88 1023.62 1024.63 1025.30 1025.42 1025.52 1025.53 1025.28 1025.28 1025.39 1025.71 1026.02 1025.09 1021.83 1019.32 1016.92 1015.83 1015.46 1015.62 1015.86 1016.15 1016.37 1016.75
1017.00 1017.82 1018.54 1018.57 1018.59 1018.86 1019.20 1018.39 1017.27 1016.54 1016.33 1016.55 1016.31 1016.40 1016.43 1016.73 1017.28 1017.92 1019.09 1020.35 1020.87 1022.39 1022.92 1023.62 1024.47 1025.88 1025.77 1025.54 1025.35 1025.69 1025.48 1025.54 1025.65 1025.83 1025.55 1023.69 1019.79 1017.25 1016.27 1015.79 1015.93 1016.26 1016.79 1017.19 1017.43
1016.24 1018.10 1018.37 1018.79 1019.11 1019.03 1018.63 1017.60 1016.42 1016.56 1016.49 1016.36 1016.08 1015.56 1015.66 1016.29 1017.06 1017.94 1019.02 1020.08 1020.79 1021.90 1022.92 1023.61 1024.16 1025.13 1025.40 1025.49 1025.54 1025.34 1025.15 1025.11 1025.67 1026.12 1025.84 1024.32 1020.11 1017.51 1017.13 1016.79 1016.79 1016.96 1017.34 1017.90 1018.16
1015.59 1017.57 1018.52 1018.90 1018.61 1018.45 1018.17 1017.05 1016.40 1016.55 1016.49 1016.28 1016.16 1015.79 1015.70 1016.00 1017.18 1018.10 1019.73 1021.18 1021.53 1022.03 1022.87 1023.48 1024.38 1024.90 1025.47 1026.05 1025.90 1025.52 1025.10 1025.05 1025.40 1025.62 1025.23 1024.33 1019.85 1017.53 1017.24 1017.10 1017.40 1017.76 1018.12 1018.62 1018.87
1015.15 1017.24 1018.59 1018.68 1017.53 1016.78 1017.36 1016.69 1016.42 1016.22 1015.99 1015.93 1015.95 1016.07 1016.24 1016.98 1017.45 1018.71 1020.67 1022.02 1022.38 1022.59 1022.94 1023.38 1024.38 1024.78 1024.70 1024.40 1024.33 1025.21 1024.92 1025.00 1025.15 1025.43 1024.35 1022.38 1019.72 1017.86 1017.52 1017.57 1017.59 1017.99 1018.25 1018.95 1019.40
1014.02 1015.06 1015.52 1017.14 1017.23 1016.51 1015.97 1015.48 1015.67 1016.03 1016.08 1015.88 1016.21 1016.08 1016.03 1017.70 1018.51 1019.17 1020.93 1022.56 1022.87 1023.37 1023.21 1023.70 1024.48 1024.81 1024.28 1024.08 1024.13 1024.11 1024.17 1024.54 1024.77 1023.54 1023.19 1020.99 1020.19 1017.34 1017.45 1017.74 1017.60 1017.55 1018.12 1018.83 1019.41
1012.88 1013.88 1015.21 1015.09 1014.85 1015.69 1015.13 1014.29 1014.27 1014.91 1015.20 1015.59 1015.73 1015.71 1016.30 1017.06 1017.38 1018.90 1019.68 1020.87 1021.62 1023.71 1023.83 1024.07 1024.45 1025.01 1024.60 1024.20 1024.15 1023.85 1023.40 1023.56 1023.32 1023.12 1022.19 1020.96 1018.88 1017.02 1016.16 1016.88 1017.29 1017.63 1017.86 1018.29 1018.79
1011.89 1012.55 1012.89 1013.61 1014.23 1014.61 1013.04 1013.46 1013.37 1013.85 1014.78 1014.74 1015.13 1015.86 1017.02 1017.94 1018.09 1018.42 1018.98 1019.58 1020.75 1022.33 1023.50 1024.19 1024.54 1025.09 1024.49 1023.98 1023.82 1022.90 1020.81 1020.99 1021.27 1020.89 1020.44 1019.78 1016.30 1015.79 1015.98 1016.26 1016.18 1016.36 1016.90 1017.37 1017.87
Wind_Speed
5 6 6 7 7 7 7 5 6 7 7 8 9 9 11 12 12 2 7 8 9 18 15 9 7 2 2 1 3 3 3 4 5 5 5 6 5 5 4 5 5 2 4 3 7
6 7 7 7 7 7 8 8 8 8 9 10 9 9 7 8 4 10 6 12 12 13 9 7 4 4 3 2 4 4 3 6 6 6 5 3 3 4 4 3 4 6 5 8 7
7 7 8 8 7 9 9 9 8 7 8 8 10 6 5 4 2 5 14 16 13 9 7 6 3 4 5 5 5 6 5 5 6 6 6 3 3 1 5 4 7 4 6 6 5
7 8 8 9 9 8 9 10 9 7 10 9 8 7 5 4 3 5 14 14 13 5 6 4 4 1 4 4 2 5 6 6 2 3 4 4 5 5 3 2 4 3 4 5 5
6 8 9 10 10 9 9 8 7 7 8 9 8 7 2 3 4 8 11 11 6 3 5 5 4 2 4 4 8 8 5 4 3 3 2 5 7 2 7 5 5 3 5 5 4
6 7 9 9 11 11 10 9 7 6 3 7 8 7 2 3 6 9 7 6 12 4 10 7 6 7 7 5 7 4 5 4 1 3 4 4 7 3 6 5 5 7 7 2 3
5 7 8 10 12 11 11 9 8 9 6 5 5 3 6 3 4 6 7 4 6 9 4 6 4 3 4 4 4 3 2 5 5 2 3 4 5 7 3 4 7 7 7 5 5
4 6 7 7 9 12 12 12 7 7 8 5 4 1 4 1 5 8 10 2 7 5 4 5 7 6 5 5 4 3 1 2 5 4 4 4 1 6 7 5 8 8 6 6 6
7 7 6 7 8 8 10 12 6 7 7 6 3 1 3 2 2 5 5 4 7 3 2 2 3 4 3 2 2 5 2 5 2 2 3 3 8 4 8 6 7 8 7 5 5
6 8 8 8 8 8 8 4 5 5 7 4 1 3 0 1 2 4 3 3 2 4 1 1 1 2 4 3 2 2 3 4 6 3 5 9 13 6 4 8 8 7 7 5 5
5 7 8 8 8 9 4 3 2 2 6 4 3 3 2 1 3 4 3 5 2 0 4 3 6 5 5 6 7 4 1 6 5 5 6 7 9 9 5 2 6 6 5 5 4
6 5 7 10 10 5 2 1 3 2 4 2 3 4 2 1 2 6 7 1 1 3 2 0 5 4 3 4 5 7 4 5 3 3 3 8 14 13 6 3 1 4 6 6 7
6 4 6 9 9 3 0 3 1 1 1 1 2 2 1 3 4 5 8 1 5 5 6 5 3 1 3 1 6 3 3 3 4 9 9 8 8 7 5 4 5 5 3 5 3
7 4 4 10 2 1 2 4 2 1 4 3 2 1 2 2 4 1 3 2 3 4 5 5 1 1 1 2 4 3 6 5 5 7 3 4 7 6 8 8 7 6 4 1 1
7 4 4 4 4 2 4 2 0 1 1 2 4 1 2 1 5 2 1 3 4 4 1 1 1 0 1 3 3 2 5 7 4 4 4 2 1 4 6 6 7 6 4 4 1
8 5 2 3 2 2 1 2 0 8 7 2 4 5 4 2 1 4 2 6 2 2 6 4 1 4 3 1 1 4 3 6 2 1 3 1 3 6 4 3 4 5 6 5 3
9 6 2 2 1 3 1 2 7 4 5 4 4 5 3 4 2 3 4 4 3 3 2 0 3 3 2 2 3 3 2 4 6 5 6 3 2 11 3 5 3 3 1 2 3
11 7 2 2 2 3 2 4 4 4 7 2 3 6 3 4 1 2 4 4 2 2 3 2 4 1 2 3 1 3 1 4 4 2 6 4 7 6 5 6 3 2 2 1 4
13 2 2 3 2 1 3 2 10 9 9 11 3 4 3 4 3 5 3 4 3 5 5 4 1 2 3 3 2 2 0 2 5 3 3 5 7 3 1 2 4 5 3 5 3
5 3 3 5 4 2 5 6 4 2 5 4 7 6 6 7 6 4 5 1 5 2 2 2 2 1 3 1 0 2 1 3 3 2 4 6 6 6 4 5 6 5 5 3 3
4 4 2 3 3 3 5 7 5 1 2 5 5 6 5 8 6 3 5 1 4 5 1 4 2 0 1 5 5 2 1 2 1 2 5 2 8 4 2 2 3 3 3 4 5
5 2 4 2 3 2 5 9 4 4 1 2 2 2 7 6 5 4 5 4 7 8 6 4 3 3 4 2 3 2 2 4 4 4 1 2 11 2 5 5 4 4 1 4 3
7 5 1 2 7 5 4 4 2 5 5 5 5 0 2 6 7 6 6 1 5 4 3 5 1 2 2 0 2 4 5 4 4 2 7 6 9 3 4 3 6 6 6 2 4
5 6 3 3 1 6 6 5 6 3 4 4 3 3 4 5 5 6 4 1 1 2 6 3 2 5 5 3 5 3 4 7 5 4 4 9 9 13 8 6 7 7 5 4 6
3 5 7 10 8 5 11 13 10 7 3 5 2 6 8 5 3 5 6 5 2 4 3 4 3 2 5 5 3 4 5 9 10 8 9 5 9 14 5 7 9 8 6 4 5
7 5 0 5 13 13 9 9 17 7 10 6 5 11 5 6 8 10 10 5 6 4 3 2 2 2 5 2 2 5 7 10 15 5 13 13 27 14 20 6 5 6 5 6 6
2 2 3 8 9 14 17 8 13 11 5 1 10 6 7 1 5 6 6 6 12 11 8 7 4 2 5 1 0 8 13 14 6 6 9 10 16 3 5 7 7 5 7 8 8
Wind_Direction
11 358 6 359 359 353 352 355 357 1 349 345 341 335 322 335 302 332 37 325 313 315 317 268 263 327 350 72 340 293 272 69 48 2 60 80 345 110 159 270 99 107 89 28 0
2 354 5 8 1 356 343 344 347 354 346 341 345 335 320 339 297 67 356 340 329 330 316 318 57 285 92 36 348 6 16 42 25 33 17 74 336 357 304 305 158 171 109 41 356
358 353 1 360 6 355 348 340 336 340 338 344 340 357 350 310 254 27 357 344 336 327 286 309 302 297 88 57 345 359 56 100 58 21 353 10 239 77 324 293 60 2 349 356 339
351 349 359 360 357 354 345 338 330 336 337 336 338 332 327 248 78 10 349 332 317 294 279 276 260 283 82 65 19 111 48 27 34 22 315 355 330 304 89 10 53 4 3 299 336
343 346 352 353 351 350 343 333 326 333 344 326 332 330 285 100 45 334 346 331 320 325 2 333 35 36 92 94 83 80 97 78 75 274 305 327 269 289 283 136 148 217 268 285 331
334 344 349 349 350 345 341 328 324 314 333 315 324 332 273 93 327 345 347 359 5 42 17 357 49 72 69 47 45 99 100 94 211 300 253 301 309 101 199 127 222 213 247 269 305
312 329 348 351 348 345 334 324 326 308 304 303 315 315 47 86 319 346 344 7 20 7 67 21 308 353 123 108 79 128 159 172 208 358 286 317 239 228 139 152 260 256 230 196 237
281 319 332 349 352 340 332 315 319 303 294 290 274 253 72 6 311 12 351 77 31 34 58 7 348 65 30 127 147 218 227 294 97 312 122 283 105 165 149 217 257 268 245 198 221
291 309 316 344 341 333 339 318 307 300 292 279 246 151 97 205 20 340 34 6 308 40 58 299 29 104 208 241 184 225 344 23 143 98 324 261 297 159 174 212 263 274 266 218 211
273 299 313 335 334 326 340 278 327 321 260 259 144 82 119 48 336 307 15 327 360 307 289 14 151 151 28 350 305 15 19 5 316 87 354 290 261 282 230 180 237 272 276 255 237
251 296 311 321 337 330 315 239 70 194 35 17 86 91 96 360 231 37 340 328 213 76 35 21 60 53 39 13 356 345 28 283 333 81 331 277 297 290 96 299 262 250 272 279 267
242 277 309 322 328 294 238 2 85 84 89 342 104 87 78 262 151 35 336 322 313 72 328 24 74 59 11 4 336 309 306 14 298 59 314 293 295 282 174 214 283 328 317 330 343
223 266 309 317 323 297 120 83 110 87 226 116 9 76 90 278 69 1 342 296 34 64 39 79 83 92 320 309 353 97 346 34 290 312 246 276 271 189 180 197 196 221 251 259 288
227 232 297 315 335 102 124 123 151 119 63 192 190 108 178 305 73 348 355 12 52 88 65 76 106 313 322 49 28 323 14 317 307 8 308 30 290 217 167 202 194 187 187 12 321
210 220 300 348 315 273 92 130 34 257 298 141 129 44 210 347 136 69 273 286 59 98 180 193 133 56 352 50 356 63 346 312 328 321 354 240 306 248 149 236 162 144 142 229 189
194 186 301 217 225 80 158 130 163 47 260 177 137 149 164 185 69 147 128 61 16 100 52 90 46 14 34 334 327 333 266 232 241 318 16 357 65 274 172 129 136 154 167 168 195
180 160 190 309 72 161 209 190 52 162 349 208 189 172 154 151 158 206 143 115 110 67 354 179 112 114 320 255 190 237 309 326 359 13 225 85 11 250 137 150 168 129 148 119 104
151 152 109 40 137 184 218 63 136 208 209 226 138 145 154 160 78 162 141 134 99 84 120 132 308 45 349 43 8 27 357 146 221 282 274 102 241 258 87 99 140 183 217 224 234
135 163 181 159 179 217 106 116 197 203 164 154 97 95 172 189 179 210 166 115 103 151 153 122 253 123 44 5 18 293 327 13 96 47 38 246 276 287 76 212 171 206 174 265 73
153 164 148 147 179 189 82 230 231 261 124 176 154 165 166 186 178 201 167 112 129 85 84 218 35 350 101 237 116 332 193 68 355 33 315 302 289 250 281 255 188 215 214 68 60
134 171 115 162 197 104 188 222 224 197 17 163 185 148 169 160 175 184 179 72 114 134 162 134 111 326 4 197 160 148 193 227 57 91 167 298 276 316 16 140 195 138 84 45 9
148 168 141 203 127 181 174 190 176 163 107 288 268 149 155 145 140 135 141 68 128 150 145 167 150 200 214 80 17 326 288 193 134 247 296 143 272 309 360 22 8 327 33 85 11
155 122 115 283 190 199 255 189 170 147 181 187 220 292 359 146 111 117 92 36 126 131 137 174 231 343 330 146 17 230 192 223 101 47 204 152 260 172 233 280 270 266 284 358 329
118 137 133 223 282 157 155 191 179 161 169 172 134 94 101 48 15 129 101 132 125 83 103 96 133 202 199 158 118 183 213 195 157 142 211 227 283 276 269 259 270 260 247 257 266
161 189 180 185 220 238 181 173 175 176 249 179 172 227 160 120 79 112 108 157 79 146 81 143 210 177 267 232 205 224 182 187 197 213 193 259 228 255 245 236 244 240 217 222 252
141 148 157 155 146 182 194 212 198 158 148 212 202 188 179 153 186 181 145 186 152 150 145 180 234 108 286 65 155 261 233 207 222 246 268 280 281 269 268 227 287 234 215 236 237
137 101 185 171 145 182 209 185 201 155 205 93 181 118 144 349 77 49 73 91 147 152 163 158 144 151 265 151 326 286 222 201 179 212 189 207 243 249 254 260 263 233 199 206 227